Time,TemperatureF,DewpointF,PressureIn,WindDirection,WindDirectionDegrees,WindSpeedMPH,WindSpeedGustMPH,Humidity,HourlyPrecipIn,Conditions,Clouds,dailyrainin,SoftwareType,DateUTC
2013-01-18 00:05:00,33.0,32.5,30.17,SW,227,0.0,0.0,98,0.00,,,0.00,Wunderground v.1.15,2013-01-18 05:05:00,
2013-01-18 00:10:00,32.9,32.4,30.15,SW,227,0.0,0.0,98,0.00,,,0.00,Wunderground v.1.15,2013-01-18 05:10:00,
2013-01-18 00:20:00,33.0,32.5,30.18,SW,227,0.0,0.0,98,0.00,,,0.00,Wunderground v.1.15,2013-01-18 05:20:00,
2013-01-18 00:25:00,33.1,32.6,30.17,SW,227,0.0,0.0,98,0.00,,,0.00,Wunderground v.1.15,2013-01-18 05:25:00,
2013-01-18 00:30:00,33.1,32.6,30.17,SW,227,0.0,0.0,98,0.00,,,0.00,Wunderground v.1.15,2013-01-18 05:30:00,
2013-01-18 00:35:00,33.1,32.6,30.18,SW,227,0.0,0.0,98,0.00,,,0.00,Wunderground v.1.15,2013-01-18 05:35:00,
2013-01-18 00:45:00,33.0,32.5,30.18,SW,227,0.0,0.0,98,0.00,,,0.01,Wunderground v.1.15,2013-01-18 05:45:00,
2013-01-18 00:50:00,33.0,32.5,30.17,SW,227,0.0,0.0,98,0.00,,,0.01,Wunderground v.1.15,2013-01-18 05:50:00,
2013-01-18 00:55:00,32.9,32.4,30.18,SW,227,0.0,0.0,98,0.00,,,0.01,Wunderground v.1.15,2013-01-18 05:55:00,
2013-01-18 01:05:00,32.9,32.4,30.19,SW,227,0.0,0.0,98,0.00,,,0.01,Wunderground v.1.15,2013-01-18 06:05:00,
2013-01-18 01:10:00,32.7,32.2,30.20,SW,227,0.0,0.0,98,0.00,,,0.01,Wunderground v.1.15,2013-01-18 06:10:00,
2013-01-18 01:15:00,32.5,32.0,30.21,SW,227,0.0,0.0,98,0.00,,,0.01,Wunderground v.1.15,2013-01-18 06:15:00,
2013-01-18 01:25:00,32.3,31.8,30.21,SW,227,0.0,0.0,98,0.00,,,0.01,Wunderground v.1.15,2013-01-18 06:25:00,
2013-01-18 01:30:00,32.2,31.7,30.22,SW,227,0.0,0.0,98,0.00,,,0.01,Wunderground v.1.15,2013-01-18 06:30:00,
2013-01-18 01:35:00,32.1,31.6,30.22,SW,227,0.0,0.0,98,0.00,,,0.01,Wunderground v.1.15,2013-01-18 06:35:00,
2013-01-18 01:45:00,31.9,31.4,30.21,SW,227,0.0,0.0,98,0.00,,,0.01,Wunderground v.1.15,2013-01-18 06:45:00,
2013-01-18 01:50:00,31.8,31.3,30.21,SW,227,0.0,0.0,98,0.00,,,0.01,Wunderground v.1.15,2013-01-18 06:50:00,
2013-01-18 02:00:00,31.7,31.2,30.22,SW,227,0.0,0.0,98,0.00,,,0.01,Wunderground v.1.15,2013-01-18 07:00:00,
2013-01-18 02:05:00,31.7,31.2,30.22,SW,227,0.0,0.0,98,0.00,,,0.01,Wunderground v.1.15,2013-01-18 07:05:00,
2013-01-18 02:10:00,31.7,31.2,30.22,SW,227,0.0,0.0,98,0.00,,,0.01,Wunderground v.1.15,2013-01-18 07:10:00,
2013-01-18 02:20:00,31.5,31.0,30.23,SW,227,0.0,0.0,98,0.00,,,0.01,Wunderground v.1.15,2013-01-18 07:20:00,
2013-01-18 02:25:00,31.4,30.9,30.23,SW,227,0.0,0.0,98,0.00,,,0.01,Wunderground v.1.15,2013-01-18 07:25:00,
2013-01-18 02:30:00,31.2,30.7,30.23,SW,227,0.0,0.0,98,0.00,,,0.01,Wunderground v.1.15,2013-01-18 07:30:00,
2013-01-18 02:40:00,31.0,30.5,30.23,SW,227,0.0,0.0,98,0.00,,,0.01,Wunderground v.1.15,2013-01-18 07:40:00,
2013-01-18 02:45:00,31.0,30.5,30.24,SW,227,0.0,0.0,98,0.00,,,0.01,Wunderground v.1.15,2013-01-18 07:45:00,
2013-01-18 02:50:00,31.1,30.6,30.24,SW,227,0.0,0.0,98,0.00,,,0.01,Wunderground v.1.15,2013-01-18 07:50:00,
2013-01-18 03:00:00,31.1,30.6,30.24,SW,227,0.0,0.0,98,0.00,,,0.01,Wunderground v.1.15,2013-01-18 08:00:00,
2013-01-18 03:05:00,31.0,30.5,30.25,SW,227,0.0,0.0,98,0.00,,,0.01,Wunderground v.1.15,2013-01-18 08:05:00,
2013-01-18 03:10:00,30.9,30.4,30.25,SW,227,0.0,0.0,98,0.00,,,0.01,Wunderground v.1.15,2013-01-18 08:10:00,
2013-01-18 03:20:00,30.7,30.2,30.25,SW,227,0.0,0.0,98,0.00,,,0.01,Wunderground v.1.15,2013-01-18 08:20:00,
2013-01-18 03:25:00,30.6,30.1,30.25,SW,227,0.0,0.0,98,0.00,,,0.01,Wunderground v.1.15,2013-01-18 08:25:00,
2013-01-18 03:30:00,30.6,30.1,30.25,SW,227,0.0,0.0,98,0.00,,,0.01,Wunderground v.1.15,2013-01-18 08:30:00,
2013-01-18 03:40:00,30.7,30.2,30.25,SW,227,0.0,0.0,98,0.00,,,0.01,Wunderground v.1.15,2013-01-18 08:40:00,
2013-01-18 03:45:00,30.7,30.2,30.25,SW,227,0.0,0.0,98,0.00,,,0.01,Wunderground v.1.15,2013-01-18 08:45:00,
2013-01-18 03:50:00,30.7,30.2,30.25,SW,227,0.0,0.0,98,0.00,,,0.01,Wunderground v.1.15,2013-01-18 08:50:00,
2013-01-18 03:55:00,30.7,30.2,30.25,SW,227,0.0,0.0,98,0.00,,,0.01,Wunderground v.1.15,2013-01-18 08:55:00,
2013-01-18 04:05:00,30.6,30.1,30.26,SW,227,0.0,0.0,98,0.00,,,0.01,Wunderground v.1.15,2013-01-18 09:05:00,
2013-01-18 04:10:00,30.7,30.2,30.25,SW,227,0.0,0.0,98,0.00,,,0.01,Wunderground v.1.15,2013-01-18 09:10:00,
2013-01-18 04:15:00,30.7,30.2,30.25,SW,227,0.0,0.0,98,0.00,,,0.01,Wunderground v.1.15,2013-01-18 09:15:00,
2013-01-18 04:20:00,30.6,30.1,30.26,SW,227,0.0,0.0,98,0.00,,,0.01,Wunderground v.1.15,2013-01-18 09:20:00,
2013-01-18 04:30:00,30.4,29.9,30.26,SW,227,0.0,0.0,98,0.00,,,0.01,Wunderground v.1.15,2013-01-18 09:30:00,
2013-01-18 04:35:00,30.4,29.9,30.26,SW,227,0.0,0.0,98,0.00,,,0.01,Wunderground v.1.15,2013-01-18 09:35:00,
2013-01-18 04:45:00,30.2,29.7,30.27,SW,227,0.0,0.0,98,0.00,,,0.01,Wunderground v.1.15,2013-01-18 09:45:00,
2013-01-18 04:50:00,30.1,29.6,30.27,SW,227,0.0,0.0,98,0.00,,,0.01,Wunderground v.1.15,2013-01-18 09:50:00,
2013-01-18 04:55:00,30.1,29.6,30.27,SW,227,0.0,0.0,98,0.00,,,0.01,Wunderground v.1.15,2013-01-18 09:55:00,
2013-01-18 05:00:00,30.0,29.5,30.28,SW,227,0.0,0.0,98,0.00,,,0.01,Wunderground v.1.15,2013-01-18 10:00:00,
2013-01-18 05:10:00,30.1,29.6,30.28,SW,227,0.0,0.0,98,0.00,,,0.01,Wunderground v.1.15,2013-01-18 10:10:00,
2013-01-18 05:15:00,30.1,29.6,30.29,SW,227,0.0,0.0,98,0.00,,,0.01,Wunderground v.1.15,2013-01-18 10:15:00,
2013-01-18 05:20:00,30.0,29.5,30.29,SW,227,0.0,0.0,98,0.00,,,0.01,Wunderground v.1.15,2013-01-18 10:20:00,
2013-01-18 05:30:00,29.8,29.3,30.30,SW,227,0.0,0.0,98,0.00,,,0.01,Wunderground v.1.15,2013-01-18 10:30:00,
2013-01-18 05:35:00,29.7,29.0,30.30,SW,227,0.0,0.0,97,0.00,,,0.01,Wunderground v.1.15,2013-01-18 10:35:00,
2013-01-18 05:40:00,29.6,28.9,30.30,SW,227,0.0,0.0,97,0.00,,,0.01,Wunderground v.1.15,2013-01-18 10:40:00,
2013-01-18 05:45:00,29.6,28.9,30.31,SW,227,0.0,0.0,97,0.00,,,0.01,Wunderground v.1.15,2013-01-18 10:45:00,
2013-01-18 05:55:00,29.5,28.8,30.31,SW,227,0.0,0.0,97,0.00,,,0.01,Wunderground v.1.15,2013-01-18 10:55:00,
2013-01-18 06:00:00,29.6,29.1,30.32,SW,227,0.0,0.0,98,0.00,,,0.01,Wunderground v.1.15,2013-01-18 11:00:00,
2013-01-18 06:05:00,29.6,29.1,30.32,SW,227,0.0,0.0,98,0.00,,,0.01,Wunderground v.1.15,2013-01-18 11:05:00,
2013-01-18 06:15:00,29.5,29.0,30.33,SW,227,0.0,0.0,98,0.00,,,0.01,Wunderground v.1.15,2013-01-18 11:15:00,
2013-01-18 06:20:00,29.4,28.7,30.33,SW,227,0.0,0.0,97,0.00,,,0.01,Wunderground v.1.15,2013-01-18 11:20:00,
2013-01-18 06:25:00,29.3,28.6,30.33,SW,227,0.0,0.0,97,0.00,,,0.01,Wunderground v.1.15,2013-01-18 11:25:00,
2013-01-18 06:35:00,29.6,29.1,30.33,SW,227,0.0,0.0,98,0.00,,,0.01,Wunderground v.1.15,2013-01-18 11:35:00,
2013-01-18 06:40:00,29.6,28.9,30.34,SW,227,0.0,0.0,97,0.00,,,0.01,Wunderground v.1.15,2013-01-18 11:40:00,
2013-01-18 06:45:00,29.6,28.9,30.35,SW,227,0.0,0.0,97,0.00,,,0.01,Wunderground v.1.15,2013-01-18 11:45:00,
2013-01-18 06:50:00,29.5,28.8,30.35,SW,227,0.0,0.0,97,0.00,,,0.01,Wunderground v.1.15,2013-01-18 11:50:00,
2013-01-18 07:00:00,29.1,28.4,30.36,SW,227,0.0,0.0,97,0.00,,,0.01,Wunderground v.1.15,2013-01-18 12:00:00,
2013-01-18 07:05:00,28.9,28.2,30.36,SW,227,0.0,0.0,97,0.00,,,0.01,Wunderground v.1.15,2013-01-18 12:05:00,
2013-01-18 07:10:00,28.7,28.0,30.36,SW,227,0.0,0.0,97,0.00,,,0.01,Wunderground v.1.15,2013-01-18 12:10:00,
2013-01-18 07:20:00,28.5,27.8,30.37,SW,227,0.0,0.0,97,0.00,,,0.01,Wunderground v.1.15,2013-01-18 12:20:00,
2013-01-18 07:25:00,28.3,27.6,30.37,SW,227,0.0,0.0,97,0.00,,,0.01,Wunderground v.1.15,2013-01-18 12:25:00,
2013-01-18 07:30:00,28.2,27.5,30.38,SW,227,0.0,0.0,97,0.00,,,0.01,Wunderground v.1.15,2013-01-18 12:30:00,
2013-01-18 07:40:00,28.0,27.3,30.38,SW,227,0.0,0.0,97,0.00,,,0.01,Wunderground v.1.15,2013-01-18 12:40:00,
2013-01-18 07:45:00,28.0,27.3,30.38,SW,227,0.0,0.0,97,0.00,,,0.01,Wunderground v.1.15,2013-01-18 12:45:00,
2013-01-18 07:50:00,27.9,27.2,30.38,SW,227,0.0,0.0,97,0.00,,,0.01,Wunderground v.1.15,2013-01-18 12:50:00,
2013-01-18 07:55:00,27.9,27.2,30.39,SW,227,0.0,0.0,97,0.00,,,0.01,Wunderground v.1.15,2013-01-18 12:55:00,
2013-01-18 08:05:00,27.8,27.1,30.39,SW,227,0.0,0.0,97,0.00,,,0.01,Wunderground v.1.15,2013-01-18 13:05:00,
2013-01-18 08:10:00,27.8,27.1,30.39,SW,227,0.0,0.0,97,0.00,,,0.01,Wunderground v.1.15,2013-01-18 13:10:00,
2013-01-18 08:15:00,27.8,27.1,30.40,SW,227,0.0,0.0,97,0.00,,,0.01,Wunderground v.1.15,2013-01-18 13:15:00,
2013-01-18 08:25:00,27.9,27.2,30.41,SW,227,0.0,0.0,97,0.00,,,0.01,Wunderground v.1.15,2013-01-18 13:25:00,
2013-01-18 08:30:00,28.0,27.3,30.41,SW,227,0.0,0.0,97,0.00,,,0.01,Wunderground v.1.15,2013-01-18 13:30:00,
2013-01-18 08:35:00,28.1,27.6,30.42,SW,227,0.0,0.0,98,0.00,,,0.01,Wunderground v.1.15,2013-01-18 13:35:00,
2013-01-18 08:40:00,28.3,27.8,30.42,SW,227,0.0,0.0,98,0.00,,,0.01,Wunderground v.1.15,2013-01-18 13:40:00,
2013-01-18 08:50:00,28.7,28.2,30.43,SW,227,0.0,0.0,98,0.00,,,0.01,Wunderground v.1.15,2013-01-18 13:50:00,
2013-01-18 08:55:00,29.0,28.5,30.44,SW,227,0.0,0.0,98,0.00,,,0.01,Wunderground v.1.15,2013-01-18 13:55:00,
2013-01-18 09:00:00,29.2,28.7,30.44,SW,227,0.0,0.0,98,0.00,,,0.01,Wunderground v.1.15,2013-01-18 14:00:00,
2013-01-18 09:10:00,29.8,29.3,30.45,SW,227,0.0,0.0,98,0.00,,,0.01,Wunderground v.1.15,2013-01-18 14:10:00,
2013-01-18 09:15:00,30.3,29.8,30.45,SW,227,0.0,0.0,98,0.00,,,0.01,Wunderground v.1.15,2013-01-18 14:15:00,
2013-01-18 09:20:00,30.7,30.2,30.46,SW,227,0.0,0.0,98,0.00,,,0.01,Wunderground v.1.15,2013-01-18 14:20:00,
2013-01-18 09:30:00,31.3,30.8,30.47,SW,227,0.0,0.0,98,0.00,,,0.01,Wunderground v.1.15,2013-01-18 14:30:00,
2013-01-18 09:35:00,31.5,31.0,30.47,SW,227,0.0,0.0,98,0.00,,,0.01,Wunderground v.1.15,2013-01-18 14:35:00,
2013-01-18 09:40:00,31.9,31.4,30.47,SW,227,0.0,0.0,98,0.00,,,0.01,Wunderground v.1.15,2013-01-18 14:40:00,
2013-01-18 09:45:00,32.3,31.8,30.47,SW,227,0.0,0.0,98,0.00,,,0.01,Wunderground v.1.15,2013-01-18 14:45:00,
2013-01-18 09:55:00,33.2,33.0,30.48,SW,227,0.0,0.0,99,0.00,,,0.01,Wunderground v.1.15,2013-01-18 14:55:00,
2013-01-18 10:00:00,33.4,32.9,30.48,SW,227,0.0,0.0,98,0.00,,,0.01,Wunderground v.1.15,2013-01-18 15:00:00,
2013-01-18 10:10:00,34.0,33.5,30.48,SW,227,0.0,0.0,98,0.00,,,0.01,Wunderground v.1.15,2013-01-18 15:10:00,
2013-01-18 10:15:00,34.3,34.0,30.48,SW,226,0.0,0.0,99,0.00,,,0.01,Wunderground v.1.15,2013-01-18 15:15:00,
2013-01-18 10:20:00,34.8,34.3,30.49,SW,226,0.0,0.0,98,0.00,,,0.01,Wunderground v.1.15,2013-01-18 15:20:00,
2013-01-18 10:25:00,35.1,34.6,30.49,SW,226,0.0,0.0,98,0.00,,,0.01,Wunderground v.1.15,2013-01-18 15:25:00,
2013-01-18 10:35:00,35.9,34.3,30.49,SW,226,0.0,1.0,94,0.00,,,0.01,Wunderground v.1.15,2013-01-18 15:35:00,
2013-01-18 10:40:00,36.3,33.4,30.49,SW,226,0.0,0.0,89,0.00,,,0.01,Wunderground v.1.15,2013-01-18 15:40:00,
2013-01-18 10:50:00,37.1,33.3,30.49,SE,139,0.0,1.0,86,0.00,,,0.02,Wunderground v.1.15,2013-01-18 15:50:00,
2013-01-18 10:55:00,37.5,34.0,30.49,WNW,292,0.0,2.0,87,0.00,,,0.02,Wunderground v.1.15,2013-01-18 15:55:00,
2013-01-18 11:00:00,37.8,34.3,30.50,ENE,78,0.0,2.0,87,0.00,,,0.02,Wunderground v.1.15,2013-01-18 16:00:00,
2013-01-18 11:05:00,38.1,34.0,30.50,ENE,57,0.0,2.0,85,0.00,,,0.03,Wunderground v.1.15,2013-01-18 16:05:00,
2013-01-18 11:15:00,38.5,32.2,30.50,West,261,0.0,1.0,78,0.08,,,0.04,Wunderground v.1.15,2013-01-18 16:15:00,
2013-01-18 11:20:00,38.6,32.0,30.50,East,80,0.0,0.0,77,0.08,,,0.05,Wunderground v.1.15,2013-01-18 16:20:00,
2013-01-18 11:25:00,38.9,33.3,30.50,ENE,77,0.0,0.0,80,0.11,,,0.06,Wunderground v.1.15,2013-01-18 16:25:00,
2013-01-18 11:35:00,39.4,33.1,30.50,North,5,0.0,0.0,78,0.17,,,0.08,Wunderground v.1.15,2013-01-18 16:35:00,
2013-01-18 11:40:00,39.5,31.6,30.50,WSW,257,0.0,0.0,73,0.09,,,0.09,Wunderground v.1.15,2013-01-18 16:40:00,
2013-01-18 11:45:00,39.4,32.8,30.50,West,280,0.0,0.0,77,0.16,,,0.10,Wunderground v.1.15,2013-01-18 16:45:00,
2013-01-18 11:55:00,39.3,31.7,30.50,NW,317,0.0,1.0,74,0.12,,,0.12,Wunderground v.1.15,2013-01-18 16:55:00,
2013-01-18 12:00:00,39.5,32.6,30.49,WSW,245,0.0,1.0,76,0.09,,,0.12,Wunderground v.1.15,2013-01-18 17:00:00,
2013-01-18 12:10:00,39.3,30.7,30.50,NE,38,1.0,1.0,71,0.12,,,0.14,Wunderground v.1.15,2013-01-18 17:10:00,
2013-01-18 12:15:00,39.4,30.8,30.49,WNW,298,1.0,1.0,71,0.08,,,0.14,Wunderground v.1.15,2013-01-18 17:15:00,
2013-01-18 12:20:00,39.7,32.8,30.49,NW,306,0.0,0.0,76,0.05,,,0.14,Wunderground v.1.15,2013-01-18 17:20:00,
2013-01-18 12:25:00,39.9,30.9,30.49,NW,321,0.0,0.0,70,0.05,,,0.15,Wunderground v.1.15,2013-01-18 17:25:00,
2013-01-18 12:35:00,40.4,31.0,30.49,NW,313,0.0,1.0,69,0.07,,,0.17,Wunderground v.1.15,2013-01-18 17:35:00,
2013-01-18 12:40:00,40.5,30.8,30.49,West,264,1.0,1.0,68,0.11,,,0.18,Wunderground v.1.15,2013-01-18 17:40:00,
2013-01-18 12:50:00,40.4,30.7,30.49,East,81,1.0,1.0,68,0.06,,,0.19,Wunderground v.1.15,2013-01-18 17:50:00,
2013-01-18 12:55:00,40.4,31.4,30.49,ENE,57,1.0,1.0,70,0.11,,,0.20,Wunderground v.1.15,2013-01-18 17:55:00,
2013-01-18 13:00:00,40.4,31.4,30.49,NE,34,1.0,1.0,70,0.11,,,0.20,Wunderground v.1.15,2013-01-18 18:00:00,
2013-01-18 13:05:00,40.5,31.5,30.49,North,5,1.0,1.0,70,0.06,,,0.21,Wunderground v.1.15,2013-01-18 18:05:00,
2013-01-18 13:15:00,41.1,29.1,30.49,NW,313,1.0,2.0,62,0.06,,,0.22,Wunderground v.1.15,2013-01-18 18:15:00,
2013-01-18 13:20:00,41.1,31.0,30.49,NNE,24,1.0,1.0,67,0.06,,,0.22,Wunderground v.1.15,2013-01-18 18:20:00,
2013-01-18 13:30:00,41.2,29.2,30.49,WNW,290,1.0,2.0,62,0.06,,,0.23,Wunderground v.1.15,2013-01-18 18:30:00,
2013-01-18 13:35:00,41.4,28.9,30.49,NNE,15,1.0,2.0,61,0.11,,,0.24,Wunderground v.1.15,2013-01-18 18:35:00,
2013-01-18 13:40:00,41.5,29.0,30.49,North,360,1.0,1.0,61,0.06,,,0.25,Wunderground v.1.15,2013-01-18 18:40:00,
2013-01-18 13:45:00,41.8,30.5,30.49,East,96,1.0,2.0,64,0.11,,,0.25,Wunderground v.1.15,2013-01-18 18:45:00,
2013-01-18 13:55:00,41.8,28.5,30.49,North,350,1.0,3.0,59,0.06,,,0.27,Wunderground v.1.15,2013-01-18 18:55:00,
2013-01-18 14:00:00,42.0,28.7,30.49,NW,311,1.0,1.0,59,0.13,,,0.28,Wunderground v.1.15,2013-01-18 19:00:00,
2013-01-18 14:05:00,42.3,29.0,30.49,NW,313,1.0,1.0,59,0.10,,,0.28,Wunderground v.1.15,2013-01-18 19:05:00,
2013-01-18 14:10:00,42.7,28.9,30.49,NW,323,0.0,0.0,58,0.08,,,0.29,Wunderground v.1.15,2013-01-18 19:10:00,
2013-01-18 14:20:00,42.8,29.0,30.49,NNE,32,1.0,1.0,58,0.09,,,0.31,Wunderground v.1.15,2013-01-18 19:20:00,
2013-01-18 14:25:00,42.7,29.8,30.49,North,360,0.0,1.0,60,0.11,,,0.32,Wunderground v.1.15,2013-01-18 19:25:00,
2013-01-18 14:35:00,43.0,30.9,30.48,North,355,0.0,0.0,62,0.08,,,0.33,Wunderground v.1.15,2013-01-18 19:35:00,
2013-01-18 14:40:00,43.2,29.4,30.48,North,360,0.0,2.0,58,0.12,,,0.34,Wunderground v.1.15,2013-01-18 19:40:00,
2013-01-18 14:45:00,43.3,29.9,30.48,NNW,331,0.0,2.0,59,0.08,,,0.35,Wunderground v.1.15,2013-01-18 19:45:00,
2013-01-18 14:55:00,43.4,28.7,30.48,North,349,1.0,1.0,56,0.10,,,0.36,Wunderground v.1.15,2013-01-18 19:55:00,
2013-01-18 15:00:00,43.5,27.9,30.49,NE,51,1.0,1.0,54,0.08,,,0.37,Wunderground v.1.15,2013-01-18 20:00:00,
2013-01-18 15:05:00,43.4,29.2,30.49,WNW,284,1.0,2.0,57,0.10,,,0.38,Wunderground v.1.15,2013-01-18 20:05:00,
2013-01-18 15:15:00,43.2,29.8,30.48,ENE,78,1.0,2.0,59,0.07,,,0.39,Wunderground v.1.15,2013-01-18 20:15:00,
2013-01-18 15:20:00,43.1,31.4,30.48,ENE,78,0.0,0.0,63,0.11,,,0.40,Wunderground v.1.15,2013-01-18 20:20:00,
2013-01-18 15:25:00,43.1,31.7,30.48,ENE,78,0.0,0.0,64,0.08,,,0.41,Wunderground v.1.15,2013-01-18 20:25:00,
2013-01-18 15:35:00,42.8,30.7,30.48,NE,46,1.0,1.0,62,0.10,,,0.42,Wunderground v.1.15,2013-01-18 20:35:00,
2013-01-18 15:40:00,43.0,28.8,30.49,West,267,1.0,1.0,57,0.07,,,0.43,Wunderground v.1.15,2013-01-18 20:40:00,
2013-01-18 15:45:00,43.5,30.1,30.49,North,9,0.0,1.0,59,0.07,,,0.43,Wunderground v.1.15,2013-01-18 20:45:00,
2013-01-18 15:55:00,43.3,29.9,30.49,NE,54,0.0,1.0,59,0.07,,,0.44,Wunderground v.1.15,2013-01-18 20:55:00,
2013-01-18 16:00:00,43.4,29.6,30.49,North,355,0.0,0.0,58,0.06,,,0.45,Wunderground v.1.15,2013-01-18 21:00:00,
2013-01-18 16:05:00,43.4,29.6,30.49,North,355,0.0,0.0,58,0.09,,,0.46,Wunderground v.1.15,2013-01-18 21:05:00,
2013-01-18 16:10:00,43.3,30.3,30.49,ENE,57,0.0,0.0,60,0.09,,,0.46,Wunderground v.1.15,2013-01-18 21:10:00,
2013-01-18 16:20:00,43.0,29.2,30.50,ENE,57,0.0,0.0,58,0.05,,,0.47,Wunderground v.1.15,2013-01-18 21:20:00,
2013-01-18 16:25:00,43.0,29.2,30.50,ENE,57,0.0,0.0,58,0.08,,,0.48,Wunderground v.1.15,2013-01-18 21:25:00,
2013-01-18 16:35:00,43.1,29.3,30.50,ENE,57,0.0,0.0,58,0.05,,,0.48,Wunderground v.1.15,2013-01-18 21:35:00,
2013-01-18 16:40:00,42.5,31.9,30.50,ENE,57,0.0,0.0,66,0.00,,,0.49,Wunderground v.1.15,2013-01-18 21:40:00,
2013-01-18 16:45:00,41.5,31.7,30.50,ENE,57,0.0,0.0,68,0.00,,,0.49,Wunderground v.1.15,2013-01-18 21:45:00,
2013-01-18 16:55:00,40.5,31.8,30.51,ENE,57,0.0,0.0,71,0.00,,,0.49,Wunderground v.1.15,2013-01-18 21:55:00,
2013-01-18 17:00:00,40.1,32.8,30.51,ENE,57,0.0,0.0,75,0.00,,,0.49,Wunderground v.1.15,2013-01-18 22:00:00,
2013-01-18 17:05:00,39.6,32.0,30.51,ENE,57,0.0,0.0,74,0.00,,,0.49,Wunderground v.1.15,2013-01-18 22:05:00,
2013-01-18 17:10:00,39.0,32.7,30.51,ENE,57,0.0,0.0,78,0.00,,,0.50,Wunderground v.1.15,2013-01-18 22:10:00,
2013-01-18 17:20:00,38.1,33.1,30.51,ENE,58,0.0,0.0,82,0.00,,,0.50,Wunderground v.1.15,2013-01-18 22:20:00,
2013-01-18 17:25:00,37.4,32.7,30.51,ENE,58,0.0,0.0,83,0.00,,,0.50,Wunderground v.1.15,2013-01-18 22:25:00,
2013-01-18 17:30:00,37.0,32.9,30.52,ENE,57,0.0,0.0,85,0.00,,,0.50,Wunderground v.1.15,2013-01-18 22:30:00,
2013-01-18 17:40:00,36.0,31.9,30.52,ENE,58,0.0,0.0,85,0.00,,,0.50,Wunderground v.1.15,2013-01-18 22:40:00,
2013-01-18 17:45:00,35.6,32.1,30.52,ENE,58,0.0,0.0,87,0.00,,,0.50,Wunderground v.1.15,2013-01-18 22:45:00,
2013-01-18 17:50:00,35.2,32.0,30.52,ENE,58,0.0,0.0,88,0.00,,,0.50,Wunderground v.1.15,2013-01-18 22:50:00,
2013-01-18 18:00:00,34.4,31.5,30.52,ENE,57,0.0,0.0,89,0.00,,,0.50,Wunderground v.1.15,2013-01-18 23:00:00,
2013-01-18 18:05:00,34.1,31.2,30.52,ENE,57,0.0,0.0,89,0.00,,,0.50,Wunderground v.1.15,2013-01-18 23:05:00,
2013-01-18 18:10:00,33.8,30.9,30.52,ENE,57,0.0,0.0,89,0.00,,,0.50,Wunderground v.1.15,2013-01-18 23:10:00,
2013-01-18 18:20:00,33.4,31.1,30.53,ENE,57,0.0,0.0,91,0.00,,,0.50,Wunderground v.1.15,2013-01-18 23:20:00,
2013-01-18 18:25:00,33.1,30.8,30.52,ENE,58,0.0,0.0,91,0.00,,,0.50,Wunderground v.1.15,2013-01-18 23:25:00,
2013-01-18 18:30:00,32.8,30.5,30.53,ENE,57,0.0,0.0,91,0.00,,,0.50,Wunderground v.1.15,2013-01-18 23:30:00,
2013-01-18 18:35:00,32.6,30.5,30.52,ENE,57,0.0,0.0,92,0.00,,,0.50,Wunderground v.1.15,2013-01-18 23:35:00,
2013-01-18 18:45:00,32.4,30.3,30.53,ENE,57,0.0,0.0,92,0.00,,,0.50,Wunderground v.1.15,2013-01-18 23:45:00,
2013-01-18 18:50:00,32.3,30.5,30.52,ENE,57,0.0,0.0,93,0.00,,,0.50,Wunderground v.1.15,2013-01-18 23:50:00,
2013-01-18 19:00:00,32.0,30.2,30.53,ENE,57,0.0,0.0,93,0.00,,,0.50,Wunderground v.1.15,2013-01-19 00:00:00,
2013-01-18 19:05:00,31.9,30.1,30.53,ENE,57,0.0,0.0,93,0.00,,,0.50,Wunderground v.1.15,2013-01-19 00:05:00,
2013-01-18 19:10:00,31.8,30.3,30.53,ENE,57,0.0,0.0,94,0.00,,,0.50,Wunderground v.1.15,2013-01-19 00:10:00,
2013-01-18 19:15:00,31.7,30.2,30.53,ENE,58,0.0,0.0,94,0.00,,,0.50,Wunderground v.1.15,2013-01-19 00:15:00,
2013-01-18 19:25:00,31.4,29.9,30.53,ENE,57,0.0,0.0,94,0.00,,,0.50,Wunderground v.1.15,2013-01-19 00:25:00,
2013-01-18 19:30:00,31.3,29.8,30.53,ENE,58,0.0,0.0,94,0.00,,,0.50,Wunderground v.1.15,2013-01-19 00:30:00,
2013-01-18 19:35:00,31.1,29.6,30.53,ENE,58,0.0,0.0,94,0.00,,,0.50,Wunderground v.1.15,2013-01-19 00:35:00,
2013-01-18 19:45:00,31.0,29.5,30.53,ENE,57,0.0,0.0,94,0.00,,,0.50,Wunderground v.1.15,2013-01-19 00:45:00,
2013-01-18 19:50:00,31.0,29.7,30.53,ENE,58,0.0,0.0,95,0.00,,,0.50,Wunderground v.1.15,2013-01-19 00:50:00,
2013-01-18 19:55:00,30.9,29.6,30.53,ENE,57,0.0,0.0,95,0.00,,,0.50,Wunderground v.1.15,2013-01-19 00:55:00,
2013-01-18 20:05:00,30.8,29.5,30.53,ENE,57,0.0,0.0,95,0.00,,,0.50,Wunderground v.1.15,2013-01-19 01:05:00,
2013-01-18 20:10:00,30.7,29.4,30.52,ENE,57,0.0,0.0,95,0.00,,,0.50,Wunderground v.1.15,2013-01-19 01:10:00,
2013-01-18 20:15:00,30.6,29.3,30.53,ENE,58,0.0,0.0,95,0.00,,,0.50,Wunderground v.1.15,2013-01-19 01:15:00,
2013-01-18 20:20:00,30.6,29.3,30.53,ENE,57,0.0,0.0,95,0.00,,,0.50,Wunderground v.1.15,2013-01-19 01:20:00,
2013-01-18 20:30:00,30.3,29.0,30.53,ENE,58,0.0,0.0,95,0.00,,,0.50,Wunderground v.1.15,2013-01-19 01:30:00,
2013-01-18 20:35:00,30.2,28.9,30.53,ENE,57,0.0,0.0,95,0.00,,,0.50,Wunderground v.1.15,2013-01-19 01:35:00,
2013-01-18 20:40:00,30.2,28.9,30.53,ENE,57,0.0,0.0,95,0.00,,,0.50,Wunderground v.1.15,2013-01-19 01:40:00,
2013-01-18 20:50:00,30.0,28.7,30.53,ENE,57,0.0,0.0,95,0.00,,,0.50,Wunderground v.1.15,2013-01-19 01:50:00,
2013-01-18 20:55:00,29.9,28.6,30.53,ENE,57,0.0,0.0,95,0.00,,,0.50,Wunderground v.1.15,2013-01-19 01:55:00,
2013-01-18 21:00:00,29.9,28.6,30.53,ENE,58,0.0,0.0,95,0.00,,,0.50,Wunderground v.1.15,2013-01-19 02:00:00,
2013-01-18 21:10:00,29.7,28.7,30.53,ENE,57,0.0,0.0,96,0.00,,,0.50,Wunderground v.1.15,2013-01-19 02:10:00,
2013-01-18 21:15:00,29.6,28.6,30.54,ENE,57,0.0,0.0,96,0.00,,,0.50,Wunderground v.1.15,2013-01-19 02:15:00,
2013-01-18 21:20:00,29.5,28.2,30.54,ENE,58,0.0,0.0,95,0.00,,,0.50,Wunderground v.1.15,2013-01-19 02:20:00,
2013-01-18 21:30:00,29.4,28.4,30.53,ENE,57,0.0,0.0,96,0.00,,,0.50,Wunderground v.1.15,2013-01-19 02:30:00,
2013-01-18 21:35:00,29.4,28.4,30.53,ENE,58,0.0,0.0,96,0.00,,,0.50,Wunderground v.1.15,2013-01-19 02:35:00,
2013-01-18 21:40:00,29.3,28.3,30.53,ENE,57,0.0,0.0,96,0.00,,,0.50,Wunderground v.1.15,2013-01-19 02:40:00,
2013-01-18 21:45:00,29.2,28.2,30.53,ENE,58,0.0,0.0,96,0.00,,,0.50,Wunderground v.1.15,2013-01-19 02:45:00,
2013-01-18 21:55:00,29.1,28.1,30.52,ENE,57,0.0,0.0,96,0.00,,,0.50,Wunderground v.1.15,2013-01-19 02:55:00,
2013-01-18 22:00:00,29.1,28.1,30.53,ENE,57,0.0,0.0,96,0.00,,,0.50,Wunderground v.1.15,2013-01-19 03:00:00,
2013-01-18 22:05:00,29.0,28.0,30.52,ENE,57,0.0,0.0,96,0.00,,,0.50,Wunderground v.1.15,2013-01-19 03:05:00,
2013-01-18 22:15:00,28.9,27.9,30.52,ENE,57,0.0,0.0,96,0.00,,,0.50,Wunderground v.1.15,2013-01-19 03:15:00,
2013-01-18 22:20:00,28.8,27.8,30.52,ENE,57,0.0,0.0,96,0.00,,,0.50,Wunderground v.1.15,2013-01-19 03:20:00,
2013-01-18 22:25:00,28.6,27.6,30.52,ENE,57,0.0,0.0,96,0.00,,,0.50,Wunderground v.1.15,2013-01-19 03:25:00,
2013-01-18 22:35:00,28.3,27.3,30.51,ENE,57,0.0,0.0,96,0.00,,,0.50,Wunderground v.1.15,2013-01-19 03:35:00,
2013-01-18 22:40:00,28.3,27.3,30.51,ENE,58,0.0,0.0,96,0.00,,,0.50,Wunderground v.1.15,2013-01-19 03:40:00,
2013-01-18 22:45:00,28.3,27.3,30.51,ENE,57,0.0,0.0,96,0.00,,,0.50,Wunderground v.1.15,2013-01-19 03:45:00,
2013-01-18 22:50:00,28.3,27.3,30.51,ENE,57,0.0,0.0,96,0.00,,,0.50,Wunderground v.1.15,2013-01-19 03:50:00,
2013-01-18 23:00:00,28.3,27.6,30.51,ENE,57,0.0,0.0,97,0.00,,,0.50,Wunderground v.1.15,2013-01-19 04:00:00,
2013-01-18 23:05:00,28.2,27.5,30.51,ENE,57,0.0,0.0,97,0.00,,,0.50,Wunderground v.1.15,2013-01-19 04:05:00,
2013-01-18 23:10:00,28.2,27.5,30.51,ENE,58,0.0,0.0,97,0.00,,,0.50,Wunderground v.1.15,2013-01-19 04:10:00,
2013-01-18 23:20:00,28.1,27.4,30.51,ENE,57,0.0,0.0,97,0.00,,,0.50,Wunderground v.1.15,2013-01-19 04:20:00,
2013-01-18 23:25:00,28.0,27.3,30.51,ENE,57,0.0,0.0,97,0.00,,,0.50,Wunderground v.1.15,2013-01-19 04:25:00,
2013-01-18 23:30:00,28.0,27.3,30.51,ENE,58,0.0,0.0,97,0.00,,,0.50,Wunderground v.1.15,2013-01-19 04:30:00,
2013-01-18 23:40:00,27.9,26.9,30.50,ENE,58,0.0,0.0,96,0.00,,,0.50,Wunderground v.1.15,2013-01-19 04:40:00,
2013-01-18 23:45:00,27.9,26.9,30.50,ENE,58,0.0,0.0,96,0.00,,,0.50,Wunderground v.1.15,2013-01-19 04:45:00,
2013-01-18 23:50:00,27.9,27.2,30.50,ENE,58,0.0,0.0,97,0.00,,,0.50,Wunderground v.1.15,2013-01-19 04:50:00,
2013-01-18 23:55:00,27.8,27.1,30.50,ENE,57,0.0,0.0,97,0.00,,,0.50,Wunderground v.1.15,2013-01-19 04:55:00,